Starlink 30257

operational
NORAD ID: 57526 Int'l Des: 2023-115 Owner: SPXS Country: US Constellation: starlink
LEOCIRCULAR

About Starlink 30257

Description loading...

Live Position

Loading 3D Globe...

Upcoming Passes

Altitude History

Altitude vs Time

uPlot chart will show altitude changes over time

Two-Line Element Set

1 57526U 23115F 25352.32239738 -.00001301 00000-0 -81277-4 0 9997
2 57526 43.0029 86.9700 0001177 276.9531 83.1177 15.02537659130075
Epoch: Dec 18, 2025 • Age: 20 hours

Current Status

Altitude 568.0 km
Velocity 7.58 km/s
Sub-Earth Point -34.10°S, 115.43°W
Launch Date Aug 8, 2023
Age 2.3 years
Type internet

Technical Details

Classification Payload
Mass 730.00 kg
Dry Mass 700.00 kg
Total Mass 730.00 kg
Length 0.30 m
Diameter 4.10 m
Span 29.00 m
Shape Box + pan
Manufacturer SPXS
Bus Type Starlink V2M
Phase Status In Orbit
Owner/State SPXS/US

Large Constellations

Loading constellations...